Time,TemperatureF,DewpointF,PressureIn,WindDirection,WindDirectionDegrees,WindSpeedMPH,WindSpeedGustMPH,Humidity,HourlyPrecipIn,Conditions,Clouds,dailyrainin,SoftwareType,DateUTC
2013-02-13 00:00:00,39.2,26.8,29.94,West,270,1.1,1.1,61,0.00,,,0.00,WUHU216HW,2013-02-13 07:00:00,
2013-02-13 00:05:00,39.2,26.8,29.94,NNW,338,1.1,1.1,61,0.00,,,0.00,WUHU216HW,2013-02-13 07:05:00,
2013-02-13 00:10:00,39.2,26.8,29.94,NNW,338,1.1,1.1,61,0.00,,,0.00,WUHU216HW,2013-02-13 07:10:00,
2013-02-13 00:30:00,38.7,26.4,29.92,NNW,338,2.0,2.0,61,0.00,,,0.00,WUHU216HW,2013-02-13 07:30:00,
2013-02-13 00:35:00,38.7,26.4,29.92,West,270,2.7,2.7,61,0.00,,,0.00,WUHU216HW,2013-02-13 07:35:00,
2013-02-13 00:40:00,38.7,26.4,29.92,West,270,2.7,2.7,61,0.00,,,0.00,WUHU216HW,2013-02-13 07:40:00,
2013-02-13 01:00:00,38.2,26.7,29.90,NW,315,0.4,0.4,63,0.00,,,0.00,WUHU216HW,2013-02-13 08:00:00,
2013-02-13 01:05:00,38.2,26.7,29.90,West,270,1.1,1.1,63,0.00,,,0.00,WUHU216HW,2013-02-13 08:05:00,
2013-02-13 01:10:00,38.2,26.7,29.90,West,270,1.1,1.1,63,0.00,,,0.00,WUHU216HW,2013-02-13 08:10:00,
2013-02-13 01:30:00,39.1,26.6,29.88,West,270,0.7,0.7,61,0.00,,,0.00,WUHU216HW,2013-02-13 08:30:00,
2013-02-13 01:35:00,39.1,26.6,29.88,NW,315,5.1,5.1,61,0.00,,,0.00,WUHU216HW,2013-02-13 08:35:00,
2013-02-13 01:40:00,39.1,26.6,29.88,NW,315,5.1,5.1,61,0.00,,,0.00,WUHU216HW,2013-02-13 08:40:00,
2013-02-13 02:00:00,39.4,26.6,29.91,West,270,0.2,0.2,60,0.00,,,0.00,WUHU216HW,2013-02-13 09:00:00,
2013-02-13 02:05:00,39.4,26.6,29.91,East,90,1.8,1.8,60,0.00,,,0.00,WUHU216HW,2013-02-13 09:05:00,
2013-02-13 02:10:00,39.4,26.6,29.91,East,90,1.8,1.8,60,0.00,,,0.00,WUHU216HW,2013-02-13 09:10:00,
2013-02-13 02:30:00,38.9,26.6,29.89,WNW,293,2.0,2.0,61,0.00,,,0.00,WUHU216HW,2013-02-13 09:30:00,
2013-02-13 02:35:00,38.9,26.6,29.90,WNW,293,2.0,2.0,61,0.00,,,0.00,WUHU216HW,2013-02-13 09:35:00,
2013-02-13 02:40:00,38.9,26.6,29.90,WNW,293,2.0,2.0,61,0.00,,,0.00,WUHU216HW,2013-02-13 09:40:00,
2013-02-13 03:00:00,38.5,26.6,29.88,WSW,248,2.5,2.5,62,0.00,,,0.00,WUHU216HW,2013-02-13 10:00:00,
2013-02-13 03:05:00,38.5,26.6,29.88,SSW,203,4.3,4.3,62,0.00,,,0.00,WUHU216HW,2013-02-13 10:05:00,
2013-02-13 03:10:00,38.5,26.6,29.88,SSW,203,4.3,4.3,62,0.00,,,0.00,WUHU216HW,2013-02-13 10:10:00,
2013-02-13 03:30:00,38.5,26.6,29.86,North,0,3.4,3.4,62,0.00,,,0.00,WUHU216HW,2013-02-13 10:30:00,
2013-02-13 03:35:00,38.7,27.1,29.86,WNW,293,4.9,4.9,63,0.00,,,0.00,WUHU216HW,2013-02-13 10:35:00,
2013-02-13 03:40:00,38.7,27.1,29.86,WNW,293,4.9,4.9,63,0.00,,,0.00,WUHU216HW,2013-02-13 10:40:00,
2013-02-13 04:00:00,38.9,27.3,29.87,WSW,248,0.2,0.2,63,0.00,,,0.00,WUHU216HW,2013-02-13 11:00:00,
2013-02-13 04:05:00,38.9,26.9,29.87,SW,225,0.0,0.2,62,0.00,,,0.00,WUHU216HW,2013-02-13 11:05:00,
2013-02-13 04:10:00,38.9,26.9,29.87,SW,225,0.0,0.0,62,0.00,,,0.00,WUHU216HW,2013-02-13 11:10:00,
2013-02-13 04:30:00,38.5,26.9,29.87,NW,315,1.6,1.6,63,0.00,,,0.00,WUHU216HW,2013-02-13 11:30:00,
2013-02-13 04:35:00,38.5,26.9,29.86,NW,315,2.9,2.9,63,0.00,,,0.00,WUHU216HW,2013-02-13 11:35:00,
2013-02-13 04:40:00,38.5,26.9,29.86,NW,315,2.9,2.9,63,0.00,,,0.00,WUHU216HW,2013-02-13 11:40:00,
2013-02-13 05:00:00,38.9,26.9,29.86,West,270,0.2,0.2,62,0.00,,,0.00,WUHU216HW,2013-02-13 12:00:00,
2013-02-13 05:05:00,38.9,26.9,29.86,West,270,0.4,0.9,62,0.00,,,0.00,WUHU216HW,2013-02-13 12:05:00,
2013-02-13 05:10:00,38.9,26.9,29.86,West,270,0.4,0.9,62,0.00,,,0.00,WUHU216HW,2013-02-13 12:10:00,
2013-02-13 05:30:00,39.2,27.2,29.86,SW,225,0.7,0.7,62,0.00,,,0.00,WUHU216HW,2013-02-13 12:30:00,
2013-02-13 05:35:00,39.2,27.2,29.85,SW,225,0.7,0.7,62,0.00,,,0.00,WUHU216HW,2013-02-13 12:35:00,
2013-02-13 05:40:00,39.2,27.2,29.85,SW,225,0.7,0.7,62,0.00,,,0.00,WUHU216HW,2013-02-13 12:40:00,
2013-02-13 06:00:00,39.2,27.2,29.85,WNW,293,0.4,0.4,62,0.00,,,0.00,WUHU216HW,2013-02-13 13:00:00,
2013-02-13 06:05:00,39.2,27.2,29.85,WNW,293,0.4,0.4,62,0.00,,,0.00,WUHU216HW,2013-02-13 13:05:00,
2013-02-13 06:10:00,39.2,27.2,29.85,WNW,293,0.4,0.4,62,0.00,,,0.00,WUHU216HW,2013-02-13 13:10:00,
2013-02-13 06:30:00,39.6,27.2,29.86,West,270,0.7,0.7,61,0.00,,,0.00,WUHU216HW,2013-02-13 13:30:00,
2013-02-13 06:35:00,39.6,27.2,29.85,SW,225,0.7,0.7,61,0.00,,,0.00,WUHU216HW,2013-02-13 13:35:00,
2013-02-13 06:40:00,39.6,27.2,29.85,SW,225,0.7,0.7,61,0.00,,,0.00,WUHU216HW,2013-02-13 13:40:00,
2013-02-13 07:00:00,40.3,27.1,29.85,SSW,203,1.8,1.8,59,0.00,,,0.00,WUHU216HW,2013-02-13 14:00:00,
2013-02-13 07:05:00,40.3,27.1,29.85,WSW,248,1.1,1.8,59,0.00,,,0.00,WUHU216HW,2013-02-13 14:05:00,
2013-02-13 07:10:00,40.3,27.1,29.85,WSW,248,1.1,1.1,59,0.00,,,0.00,WUHU216HW,2013-02-13 14:10:00,
2013-02-13 07:30:00,40.1,26.9,29.84,WSW,248,0.9,0.9,59,0.00,,,0.00,WUHU216HW,2013-02-13 14:30:00,
2013-02-13 07:35:00,40.1,26.9,29.84,WSW,248,1.1,1.1,59,0.00,,,0.00,WUHU216HW,2013-02-13 14:35:00,
2013-02-13 07:40:00,40.1,26.9,29.84,WSW,248,1.1,1.1,59,0.00,,,0.00,WUHU216HW,2013-02-13 14:40:00,
2013-02-13 08:00:00,40.5,27.3,29.84,WNW,293,1.1,1.1,59,0.00,,,0.00,WUHU216HW,2013-02-13 15:00:00,
2013-02-13 08:05:00,40.3,27.1,29.84,SSE,158,3.1,3.1,59,0.00,,,0.00,WUHU216HW,2013-02-13 15:05:00,
2013-02-13 08:10:00,40.3,27.1,29.84,SSE,158,3.1,3.1,59,0.00,,,0.00,WUHU216HW,2013-02-13 15:10:00,
2013-02-13 08:30:00,40.7,26.6,29.86,West,270,2.7,2.7,57,0.00,,,0.00,WUHU216HW,2013-02-13 15:30:00,
2013-02-13 08:35:00,40.7,27.0,29.85,WNW,293,2.7,2.7,58,0.00,,,0.00,WUHU216HW,2013-02-13 15:35:00,
2013-02-13 08:40:00,40.7,27.0,29.85,WNW,293,2.7,2.7,58,0.00,,,0.00,WUHU216HW,2013-02-13 15:40:00,
2013-02-13 09:00:00,41.2,26.7,29.86,West,270,1.8,1.8,56,0.00,,,0.00,WUHU216HW,2013-02-13 16:00:00,
2013-02-13 09:05:00,41.2,26.7,29.86,WSW,248,4.0,4.0,56,0.00,,,0.00,WUHU216HW,2013-02-13 16:05:00,
2013-02-13 09:10:00,41.2,26.7,29.86,WSW,248,4.0,4.0,56,0.00,,,0.00,WUHU216HW,2013-02-13 16:10:00,
2013-02-13 09:30:00,41.8,26.3,29.87,NNW,338,1.8,1.8,54,0.00,,,0.00,WUHU216HW,2013-02-13 16:30:00,
2013-02-13 09:35:00,41.8,26.3,29.87,NNW,338,2.7,2.7,54,0.00,,,0.00,WUHU216HW,2013-02-13 16:35:00,
2013-02-13 09:40:00,41.8,26.3,29.87,NNW,338,2.7,2.7,54,0.00,,,0.00,WUHU216HW,2013-02-13 16:40:00,
2013-02-13 10:00:00,42.1,26.7,29.88,WNW,293,4.7,4.7,54,0.00,,,0.00,WUHU216HW,2013-02-13 17:00:00,
2013-02-13 10:05:00,42.1,26.7,29.88,WSW,248,4.5,4.7,54,0.00,,,0.00,WUHU216HW,2013-02-13 17:05:00,
2013-02-13 10:10:00,42.1,26.7,29.88,WSW,248,4.5,4.7,54,0.00,,,0.00,WUHU216HW,2013-02-13 17:10:00,
2013-02-13 10:30:00,42.3,25.9,29.88,WSW,248,7.2,7.2,52,0.00,,,0.00,WUHU216HW,2013-02-13 17:30:00,
2013-02-13 10:35:00,42.3,25.9,29.88,WNW,293,5.1,7.2,52,0.00,,,0.00,WUHU216HW,2013-02-13 17:35:00,
2013-02-13 10:40:00,42.3,25.9,29.88,WNW,293,5.1,5.1,52,0.00,,,0.00,WUHU216HW,2013-02-13 17:40:00,
2013-02-13 11:00:00,42.8,26.0,29.90,NNE,23,2.7,2.7,51,0.00,,,0.00,WUHU216HW,2013-02-13 18:00:00,
2013-02-13 11:05:00,42.8,26.0,29.90,West,270,3.4,3.4,51,0.00,,,0.00,WUHU216HW,2013-02-13 18:05:00,
2013-02-13 11:10:00,42.8,26.0,29.90,West,270,3.4,3.4,51,0.00,,,0.00,WUHU216HW,2013-02-13 18:10:00,
2013-02-13 11:30:00,43.0,26.2,29.90,WNW,293,8.1,8.1,51,0.00,,,0.00,WUHU216HW,2013-02-13 18:30:00,
2013-02-13 11:35:00,43.0,26.2,29.90,WSW,248,8.3,8.3,51,0.00,,,0.00,WUHU216HW,2013-02-13 18:35:00,
2013-02-13 11:40:00,43.0,26.2,29.90,WSW,248,8.3,8.3,51,0.00,,,0.00,WUHU216HW,2013-02-13 18:40:00,
2013-02-13 12:00:00,44.1,26.2,29.90,South,180,2.9,2.9,49,0.00,,,0.00,WUHU216HW,2013-02-13 19:00:00,
2013-02-13 12:05:00,43.9,26.0,29.90,WSW,248,5.4,5.4,49,0.00,,,0.00,WUHU216HW,2013-02-13 19:05:00,
2013-02-13 12:10:00,43.9,26.0,29.90,WSW,248,5.4,5.4,49,0.00,,,0.00,WUHU216HW,2013-02-13 19:10:00,
2013-02-13 12:30:00,44.3,25.7,29.90,WSW,248,6.5,6.5,48,0.01,,,0.00,WUHU216HW,2013-02-13 19:30:00,
2013-02-13 12:35:00,44.3,25.7,29.89,WSW,248,6.5,6.5,48,0.01,,,0.01,WUHU216HW,2013-02-13 19:35:00,
2013-02-13 12:40:00,44.3,25.7,29.89,WSW,248,6.5,6.5,48,0.01,,,0.01,WUHU216HW,2013-02-13 19:40:00,
2013-02-13 13:00:00,44.1,26.2,29.90,WSW,248,2.5,2.5,49,0.01,,,0.01,WUHU216HW,2013-02-13 20:00:00,
2013-02-13 13:05:00,44.1,26.2,29.90,SSW,203,8.9,8.9,49,0.01,,,0.01,WUHU216HW,2013-02-13 20:05:00,
2013-02-13 13:10:00,44.1,26.2,29.90,SSW,203,8.9,8.9,49,0.01,,,0.01,WUHU216HW,2013-02-13 20:10:00,
2013-02-13 13:30:00,44.6,26.1,29.90,West,270,1.8,1.8,48,0.00,,,0.01,WUHU216HW,2013-02-13 20:30:00,
2013-02-13 13:35:00,44.5,25.9,29.90,West,270,1.8,1.8,48,0.00,,,0.01,WUHU216HW,2013-02-13 20:35:00,
2013-02-13 13:40:00,44.5,25.9,29.90,West,270,1.8,1.8,48,0.00,,,0.01,WUHU216HW,2013-02-13 20:40:00,
2013-02-13 14:00:00,45.0,25.9,29.90,NW,315,4.0,4.0,47,0.00,,,0.01,WUHU216HW,2013-02-13 21:00:00,
2013-02-13 14:05:00,45.2,26.0,29.90,NW,315,4.0,4.0,47,0.00,,,0.01,WUHU216HW,2013-02-13 21:05:00,
2013-02-13 14:10:00,45.2,26.0,29.90,NW,315,4.0,4.0,47,0.00,,,0.01,WUHU216HW,2013-02-13 21:10:00,
2013-02-13 14:30:00,43.9,24.4,29.91,WSW,248,2.0,2.0,46,0.00,,,0.01,WUHU216HW,2013-02-13 21:30:00,
2013-02-13 14:35:00,43.9,24.4,29.91,West,270,0.9,2.0,46,0.00,,,0.01,WUHU216HW,2013-02-13 21:35:00,
2013-02-13 14:40:00,43.9,24.4,29.91,West,270,0.9,2.0,46,0.00,,,0.01,WUHU216HW,2013-02-13 21:40:00,
2013-02-13 15:00:00,43.6,24.0,29.92,WSW,248,0.9,0.9,46,0.00,,,0.01,WUHU216HW,2013-02-13 22:00:00,
2013-02-13 15:05:00,43.6,24.6,29.92,SW,225,3.4,3.4,47,0.00,,,0.01,WUHU216HW,2013-02-13 22:05:00,
2013-02-13 15:10:00,43.6,24.6,29.92,SW,225,3.4,3.4,47,0.00,,,0.01,WUHU216HW,2013-02-13 22:10:00,
2013-02-13 15:30:00,43.7,24.8,29.92,West,270,4.3,4.3,47,0.00,,,0.01,WUHU216HW,2013-02-13 22:30:00,
2013-02-13 15:35:00,43.7,24.8,29.92,WSW,248,1.6,4.3,47,0.00,,,0.01,WUHU216HW,2013-02-13 22:35:00,
2013-02-13 15:40:00,43.7,24.8,29.92,WSW,248,1.6,4.3,47,0.00,,,0.01,WUHU216HW,2013-02-13 22:40:00,
2013-02-13 16:00:00,43.2,24.3,29.92,WNW,293,2.5,2.5,47,0.00,,,0.01,WUHU216HW,2013-02-13 23:00:00,
2013-02-13 16:05:00,43.2,24.3,29.92,SW,225,1.3,2.5,47,0.00,,,0.01,WUHU216HW,2013-02-13 23:05:00,
2013-02-13 16:30:00,42.1,24.3,29.93,NNW,338,4.0,4.0,49,0.00,,,0.01,WUHU216HW,2013-02-13 23:30:00,
2013-02-13 16:35:00,42.1,24.3,29.93,NW,315,4.5,4.5,49,0.00,,,0.01,WUHU216HW,2013-02-13 23:35:00,
2013-02-13 16:40:00,42.1,24.3,29.93,NW,315,4.5,4.5,49,0.00,,,0.01,WUHU216HW,2013-02-13 23:40:00,
2013-02-13 17:00:00,40.9,23.6,29.94,West,270,2.2,2.2,50,0.00,,,0.01,WUHU216HW,2013-02-14 00:00:00,
2013-02-13 17:05:00,41.0,23.8,29.94,NW,315,3.4,3.4,50,0.00,,,0.01,WUHU216HW,2013-02-14 00:05:00,
2013-02-13 17:10:00,41.0,23.8,29.94,NW,315,3.4,3.4,50,0.00,,,0.01,WUHU216HW,2013-02-14 00:10:00,
2013-02-13 17:30:00,40.3,23.6,29.94,WSW,248,4.0,4.0,51,0.00,,,0.01,WUHU216HW,2013-02-14 00:30:00,
2013-02-13 17:35:00,40.3,23.6,29.94,SSE,158,5.1,5.1,51,0.00,,,0.01,WUHU216HW,2013-02-14 00:35:00,
2013-02-13 17:40:00,40.3,23.6,29.94,SSE,158,5.1,5.1,51,0.00,,,0.01,WUHU216HW,2013-02-14 00:40:00,
2013-02-13 18:00:00,39.2,24.3,29.94,SSW,203,3.1,3.1,55,0.00,,,0.01,WUHU216HW,2013-02-14 01:00:00,
2013-02-13 18:05:00,39.2,23.9,29.94,SSW,203,3.1,3.1,54,0.00,,,0.01,WUHU216HW,2013-02-14 01:05:00,
2013-02-13 18:10:00,39.2,23.9,29.94,SSW,203,3.1,3.1,54,0.00,,,0.01,WUHU216HW,2013-02-14 01:10:00,
2013-02-13 18:30:00,38.9,23.1,29.94,WSW,248,3.6,3.6,53,0.00,,,0.01,WUHU216HW,2013-02-14 01:30:00,
2013-02-13 18:35:00,38.9,23.1,29.94,NNW,338,1.8,3.6,53,0.00,,,0.01,WUHU216HW,2013-02-14 01:35:00,
2013-02-13 18:40:00,38.9,23.1,29.94,NNW,338,1.8,2.0,53,0.00,,,0.01,WUHU216HW,2013-02-14 01:40:00,
2013-02-13 19:00:00,38.7,23.0,29.95,West,270,4.9,4.9,53,0.00,,,0.01,WUHU216HW,2013-02-14 02:00:00,
2013-02-13 19:05:00,38.7,23.0,29.95,NW,315,5.1,5.1,53,0.00,,,0.01,WUHU216HW,2013-02-14 02:05:00,
2013-02-13 19:10:00,38.7,23.0,29.95,NW,315,5.1,5.1,53,0.00,,,0.01,WUHU216HW,2013-02-14 02:10:00,
2013-02-13 19:30:00,38.5,22.8,29.96,WSW,248,2.7,2.7,53,0.00,,,0.01,WUHU216HW,2013-02-14 02:30:00,
2013-02-13 19:35:00,38.5,22.3,29.96,West,270,5.4,5.4,52,0.00,,,0.01,WUHU216HW,2013-02-14 02:35:00,
2013-02-13 19:40:00,38.5,22.3,29.96,West,270,5.4,5.4,52,0.00,,,0.01,WUHU216HW,2013-02-14 02:40:00,
2013-02-13 20:00:00,38.2,22.1,29.96,WSW,248,3.8,3.8,52,0.00,,,0.01,WUHU216HW,2013-02-14 03:00:00,
2013-02-13 20:05:00,38.3,22.2,29.96,WSW,248,3.8,3.8,52,0.00,,,0.01,WUHU216HW,2013-02-14 03:05:00,
2013-02-13 20:10:00,38.3,22.2,29.96,WSW,248,3.8,3.8,52,0.00,,,0.01,WUHU216HW,2013-02-14 03:10:00,
2013-02-13 20:30:00,38.2,22.5,29.96,WSW,248,6.3,6.3,53,0.00,,,0.01,WUHU216HW,2013-02-14 03:30:00,
2013-02-13 20:35:00,38.2,22.5,29.96,WNW,293,1.1,6.3,53,0.00,,,0.01,WUHU216HW,2013-02-14 03:35:00,
2013-02-13 20:40:00,38.2,22.5,29.96,WNW,293,1.1,1.1,53,0.00,,,0.01,WUHU216HW,2013-02-14 03:40:00,
2013-02-13 21:00:00,38.0,22.3,29.97,NW,315,1.6,1.6,53,0.00,,,0.01,WUHU216HW,2013-02-14 04:00:00,
2013-02-13 21:05:00,38.0,22.3,29.97,WNW,293,2.7,2.7,53,0.00,,,0.01,WUHU216HW,2013-02-14 04:05:00,
2013-02-13 21:10:00,38.0,22.3,29.97,WNW,293,2.7,2.7,53,0.00,,,0.01,WUHU216HW,2013-02-14 04:10:00,
2013-02-13 21:30:00,37.8,22.6,29.98,WSW,248,4.7,4.7,54,0.00,,,0.01,WUHU216HW,2013-02-14 04:30:00,
2013-02-13 21:35:00,37.8,22.6,29.98,WSW,248,1.8,4.7,54,0.00,,,0.01,WUHU216HW,2013-02-14 04:35:00,
2013-02-13 21:40:00,37.8,22.6,29.98,WSW,248,1.8,4.0,54,0.00,,,0.01,WUHU216HW,2013-02-14 04:40:00,
2013-02-13 22:00:00,37.6,22.9,29.99,NNE,23,1.1,1.1,55,0.00,,,0.01,WUHU216HW,2013-02-14 05:00:00,
2013-02-13 22:05:00,37.6,22.9,29.99,SW,225,3.4,3.4,55,0.00,,,0.01,WUHU216HW,2013-02-14 05:05:00,
2013-02-13 22:10:00,37.6,22.9,29.99,SW,225,3.4,3.4,55,0.00,,,0.01,WUHU216HW,2013-02-14 05:10:00,
2013-02-13 22:30:00,37.1,22.8,30.01,WNW,293,0.0,0.0,56,0.00,,,0.01,WUHU216HW,2013-02-14 05:30:00,
2013-02-13 22:35:00,37.1,22.8,30.00,WNW,293,0.0,0.0,56,0.00,,,0.01,WUHU216HW,2013-02-14 05:35:00,
2013-02-13 22:40:00,37.1,22.8,30.00,WNW,293,0.0,0.0,56,0.00,,,0.01,WUHU216HW,2013-02-14 05:40:00,
2013-02-13 23:00:00,36.7,22.5,30.01,NW,315,4.7,4.7,56,0.00,,,0.01,WUHU216HW,2013-02-14 06:00:00,
2013-02-13 23:05:00,36.7,22.5,30.01,NW,315,4.7,4.7,56,0.00,,,0.01,WUHU216HW,2013-02-14 06:05:00,
2013-02-13 23:10:00,36.7,22.5,30.01,NW,315,4.7,4.7,56,0.00,,,0.01,WUHU216HW,2013-02-14 06:10:00,
2013-02-13 23:30:00,36.0,23.1,30.01,West,270,1.8,1.8,59,0.00,,,0.01,WUHU216HW,2013-02-14 06:30:00,
2013-02-13 23:35:00,36.0,22.7,30.01,WNW,293,2.0,2.0,58,0.00,,,0.01,WUHU216HW,2013-02-14 06:35:00,
2013-02-13 23:40:00,36.0,22.7,30.01,WNW,293,2.0,2.0,58,0.00,,,0.01,WUHU216HW,2013-02-14 06:40:00,